Weather History for St. Petersburg, FL

Change the Weather History Date:

Sunday, October 12, 2014

  Actual Average Record
Temperature  
Mean Temperature 82 °F -  
Max Temperature 88 °F 84 °F 91 °F (1985)
Min Temperature 75 °F 70 °F 59 °F (1951)
Cooling Degree Days 16    
Growing Degree Days 32 (Base 50)    
Moisture  
Dew Point 70 °F    
Average Humidity 70    
Maximum Humidity 85    
Minimum Humidity 53    
Precipitation  
Precipitation 0.00 in - - ()
Sea Level Pressure  
Sea Level Pressure 30.01 in    
Wind  
Wind Speed 8 mph (ESE)    
Max Wind Speed 21 mph    
Max Gust Speed -    
Visibility 10 miles    
Events      
Averages and records for this station are not official NWS values.
T = Trace of Precipitation, MM = Missing Value Source: NWS Daily Summary

Daily Weather History Graph

Daily Weather History Graph

Search for Another Location

Airport:

Trip Planner

Search our weather history database for the weather conditions in past years. The results will help you decide how hot, cold, wet, or windy it might be!

Date:

Astronomy

Oct. 12, 2014 Rise Set
Actual Time 7:29 AM EDT 7:04 PM EDT
Civil Twilight 7:05 AM EDT 7:27 PM EDT
Nautical Twilight 6:38 AM EDT 7:55 PM EDT
Astronomical Twilight 6:11 AM EDT 8:22 PM EDT
Moon 10:37 PM EDT (10/12) 11:33 AM EDT (10/12)
Length of Visible Light 12h 22m
Length of Day
11h 35m
Waning Gibbous, 79% of the Moon is Illuminated
Oct 12
Waning Gibbous
Oct 15
Last Quarter
Oct 23
New
Oct 30
First Quarter
Nov 6
Full

Hourly Weather History & Observations

Time (EDT) Temp. Heat Index Dew Point Humidity Pressure Visibility Wind Dir Wind Speed Gust Speed Precip Events Conditions
12:53 AM 79.0 °F - 69.1 °F 72% 30.01 in 10.0 mi SE 10.4 mph - N/A   Clear
1:53 AM 78.1 °F - 70.0 °F 76% 30.01 in 10.0 mi ESE 8.1 mph - N/A   Clear
2:53 AM 78.1 °F - 70.0 °F 76% 30.01 in 10.0 mi SE 5.8 mph - N/A   Clear
3:53 AM 77.0 °F - 70.0 °F 79% 30.00 in 10.0 mi ESE 9.2 mph - N/A   Clear
4:53 AM 77.0 °F - 70.0 °F 79% 29.99 in 10.0 mi ESE 9.2 mph - N/A   Clear
5:53 AM 77.0 °F - 70.0 °F 79% 30.00 in 10.0 mi ESE 10.4 mph - N/A   Clear
6:53 AM 77.0 °F - 70.0 °F 79% 30.02 in 10.0 mi SE 8.1 mph - N/A   Clear
7:53 AM 75.9 °F - 71.1 °F 85% 30.03 in 10.0 mi ESE 9.2 mph - N/A   Clear
8:53 AM 78.1 °F - 71.1 °F 79% 30.04 in 10.0 mi ESE 8.1 mph - N/A   Clear
9:53 AM 79.0 °F - 71.1 °F 77% 30.06 in 10.0 mi ESE 4.6 mph - N/A   Clear
10:53 AM 81.0 °F 84.9 °F 71.1 °F 72% 30.05 in 10.0 mi East 5.8 mph - N/A   Clear
11:53 AM 84.0 °F 89.0 °F 71.1 °F 65% 30.05 in 10.0 mi East 6.9 mph - N/A   Clear
12:53 PM 84.9 °F 90.1 °F 71.1 °F 63% 30.04 in 10.0 mi ENE 4.6 mph - N/A   Clear
1:53 PM 87.1 °F 92.8 °F 71.1 °F 59% 30.02 in 10.0 mi NE 4.6 mph - N/A   Clear
2:53 PM 87.1 °F 92.0 °F 70.0 °F 57% 29.99 in 10.0 mi NE 4.6 mph - N/A   Clear
3:53 PM 87.1 °F 90.6 °F 68.0 °F 53% 29.98 in 10.0 mi ENE 6.9 mph - N/A   Clear
4:53 PM 88.0 °F 93.8 °F 71.1 °F 57% 29.97 in 10.0 mi ENE 5.8 mph - N/A   Clear
5:53 PM 86.0 °F 92.2 °F 72.0 °F 63% 29.98 in 10.0 mi East 4.6 mph - N/A   Partly Cloudy
6:53 PM 84.9 °F 89.4 °F 70.0 °F 61% 29.98 in 10.0 mi ESE 3.5 mph - N/A   Clear
7:53 PM 82.9 °F 88.0 °F 72.0 °F 69% 29.99 in 10.0 mi Calm Calm - N/A   Clear
8:53 PM 82.9 °F 87.5 °F 71.1 °F 67% 30.01 in 10.0 mi ESE 10.4 mph - N/A   Clear
9:53 PM 82.0 °F 85.5 °F 69.1 °F 65% 30.03 in 10.0 mi ESE 20.7 mph - N/A   Clear
10:53 PM 80.1 °F 82.9 °F 69.1 °F 69% 30.05 in 10.0 mi SE 20.7 mph - N/A   Clear
11:53 PM 79.0 °F - 69.1 °F 72% 30.05 in 10.0 mi SE 18.4 mph - N/A   Clear